KUIPER-00143

导读

KUIPER-00172是美国亚马逊“柯伊伯计划”卫星互联网星座中的一颗近地轨道卫星,于2025年9月25日发射入轨,归属于美国运营商,NORAD编号为65785,COSPAR编号为2025-217Z。 该卫星运行在倾角约93.6°的近地轨道,平均轨道高度约647公里,是亚马逊计划部署的3200余颗第一代柯伊伯星座组网卫星之一,旨在构建覆盖全球的卫星互联网服务,与SpaceX星链系统形成市场竞争。

Basic Information
目录编号:
65785
目录名称:
KUIPER-00172
国际标识:
2025-217Z
轨道中心:
EARTH
卫星名称:
KUIPER-00172
卫星全名:
KUIPER-00143
卫星状态:
在轨 (已飞行351 天)
发射日期:
2025-09-25 UTC
国别 :
美国 (US)
星等 :
--
This satellite is enrolled in the Space Conjunction Data Service (SCDS) and the current flight risk assessment level is: No High Risk
Orbit Information
数据来源 国际轨道数据 AOE轨道数据
星历时间 2026-09-11T09:50:46+0800
17小时前
查看轨道信息
2026-09-10T07:00:00+0800
1天前
查看轨道信息
半长轴 7007.66km 7007.724km
偏心率 0.0000605 0.0000857
轨道倾角 51.900° 51.899°
近地点辐角 27.757° 33.330°
升交点赤经 280.819° 285.767°
平近点角 332.342° 123.602°
近地点 629.099km 628.986km
远地点 629.947km 630.188km
周期 97.301分钟 97.303分钟
每日圈数 14.799372 14.79917
Detailed Information
使用方式:
暂无
2D Orbit Map
3D Orbit Map
Orbit Altitude Analysis Chart
Orbit Inclination Analysis Chart
Orbit Comprehensive Analysis Chart
View Comprehensive Chart
Conjunction Data List
Event ID Objects TCA Miss Dist (km) Collision Risk Probability Collision Risk Index (CRI) Action
CDM_260913-133006-578506-962721
2026-09-13T
13:30:41+0000
0.293 km
中距离
3.763452E-4 高风险 0.87
CDM_260914-013906-578506-962721
2026-09-14T
01:39:58+0000
1.292 km
极远距离
6.501251E-6 低风险 0.51
CDM_260914-000206-578506-962721
2026-09-14T
00:02:44+0000
2.090 km
极远距离
1.592011E-6 低风险 0.39
CDM_260913-115306-578506-962721
2026-09-13T
11:53:27+0000
2.316 km
极远距离
1.280464E-6 低风险 0.37
CDM_260913-150706-578506-962721
2026-09-13T
15:07:55+0000
2.830 km
极远距离
9.279185E-7 极低风险 0.34
Miss Distance Evolution Trend with All Objects
Collision Probability Evolution Trend with All Objects